ECHOSTAR 8

Satellite information

Favourite Embed

Satellite Type and Status

PAYLOADIN ORBIT

Key statistics

Satellite ECHOSTAR 8 at a glance.

Uptime

8474

Days in orbit

Revolutions

≈ 1.0

Per day

Orbit

OTHER

Other

Inclination

8.3

Latest

Satellite identification and parameters

Extended collection of information and parameters for ECHOSTAR 8.

Object identification

Identified? True

Debris? False

Object name: ECHOSTAR 8

International designator: 2002-039A

Object number (NORAD): 27501

Object ID (CCSDS): 27501

Country: UNITED STATES OF AMERICA (US)

Current information (Y/N): Y

RCS size: LARGE

Orbital parameters

Period: 1461.775 minutes

Inclination: 8.2596 deg

SMA: 42665.858 km

Apoapsis: 36320.614 km

Periapsis: 36254.832 km

RAAN: 64.2333 deg

Eccentricy: 0.0007709

Argument of periapsis: 80.3914 deg

Mean anomaly: 304.0961 deg

Mean motion: 0.98510391 rev/day

Mean motion (dot): -0.00000143 rev/day2

B* drag term: 0.0 1/REarth

Two-line elements (TLE)

Creation date: Nov. 2, 2025, 5:34 p.m.

Reference frame: TEME

Reference center: EARTH

Epoch: Nov. 2, 2025, 2:40 a.m. UTC

TLE line 0: 0 ECHOSTAR 8

TLE line 1: 1 27501U 02039A 25306.11124640 -.00000143 00000-0 00000-0 0 9993

TLE line 2: 2 27501 8.2596 64.2333 0007709 80.3914 304.0961 0.98510391 49828

Live tracking on map

Real-time ground track for satellite ECHOSTAR 8.

In-orbit conjunctions

A list of the most updated potential collisions computed for object ECHOSTAR 8.

Target Orbit TCA Probability of collision Miss distance Type
BREEZE-M R/B OTHER 2025-06-11 04:24:01 TBA 3766.0 (m) ROCKET BODY

Associated space launch

EchoStar VIII was an American geostationary communications satellite which is operated by EchoStar. It is positioned in geostationary orbit at a longitude of 77° West, from where it is used to provide high-definition television direct broadcasting services to the Contiguous United States.

ECHOSTAR 8 was lifted into orbit during the mission ‘Proton-K/DM-2M | Echostar VIII’, on board a Proton-K/DM-2M space rocket.

The launch took place on Aug. 22, 2002, 5:15 a.m. from 81/23 (81L).

For more information about the launch, click the button.

Launch to space Proton-K/DM-2M | Echostar VIII
Proton-K/DM-2M | Echostar VIII

Agency: N/A

Status: Launch Successful

Launch date: Aug. 22, 2002, 5:15 a.m. UTC

Rocket: Proton-K/DM-2M

Launch pad: 81/23 (81L)

Location: Baikonur Cosmodrome, Republic of Kazakhstan

...

Latest news about this satellite

There are no fresh news available about this satellite. Check back as we update our databases every day.


Newsletter sign-up

Weekly statistics, charts and insights to help you stay on top of the space industry.